Weather Service Report


042 
ASUS46 KPQR 060010
RWROR 

OREGON REGIONAL WEATHER ROUNDUP
NATIONAL WEATHER SERVICE PORTLAND OR
400 PM PST FRI FEB 05 2016

NOTE: "FAIR" INDICATES FEW OR NO CLOUDS BELOW 12,000 FEET WITH
NO SIGNIFICANT WEATHER AND/OR OBSTRUCTIONS TO VISIBILITY.

ORZ001>013-060100-
NORTHWEST OREGON

  
CITY           SKY/WX    TMP DP  RH WIND       PRES   REMARKS
ASTORIA        RAIN      52  49  89 S28G43    30.07R FOG              
6HR MIN TEMP:  49; 6HR MAX TEMP:  59; 6HR PCP:  0.07;                

NEWPORT        RAIN      52  46  82 S32G45    30.15F                  
PORTLAND       CLOUDY    51  40  65 E15       30.16F                  
6HR MIN TEMP:  47; 6HR MAX TEMP:  53;                                

VANCOUVER WA   CLOUDY    54  39  57 E12       30.14F                  
6HR MIN TEMP:  46; 6HR MAX TEMP:  54;                                

SCAPPOOSE      CLOUDY    52  41  66 CALM      30.13F                  
6HR MIN TEMP:  44; 6HR MAX TEMP:  54;                                

HILLSBORO      CLOUDY    48  43  82 CALM      30.13F                  
6HR MIN TEMP:  39; 6HR MAX TEMP:  51;                                

AURORA         CLOUDY    57  37  47 S14G26    30.16F                  
6HR MIN TEMP:  40; 6HR MAX TEMP:  57;                                

MCMINNVILLE    CLOUDY    52  44  74 S8        30.15F                  
6HR MIN TEMP:  41; 6HR MAX TEMP:  52;                                

SALEM          CLOUDY    58  37  45 S15G24    30.16F                  
6HR MIN TEMP:  45; 6HR MAX TEMP:  59;                                

CORVALLIS      CLOUDY    55  43  62 S12       30.20S                  
EUGENE         CLOUDY    58  38  47 S13       30.22S                  
6HR MIN TEMP:  47; 6HR MAX TEMP:  59;                                

$$

ORZ021-028-060100-
SOUTHWEST OREGON

  
CITY           SKY/WX    TMP DP  RH WIND       PRES   REMARKS
NORTH BEND       N/A    N/A N/A N/A S20       30.25R                  
6HR MIN TEMP:  46; 6HR MAX TEMP:  61;                                

BROOKINGS      CLOUDY    52  48  86 SE6       30.37R                  
ROSEBURG       CLOUDY    61  31  32 S8        30.26R                  
6HR MIN TEMP:  44; 6HR MAX TEMP:  61;                                

SEXTON SUMMIT  PTSUNNY   45  24  43 S18G33    30.27F                  
6HR MIN TEMP:  41; 6HR MAX TEMP:  46;                                

MEDFORD        PTSUNNY   54  37  52 CALM      30.29F                  
6HR MIN TEMP:  34; 6HR MAX TEMP:  56;                                

$$

ORZ014>016-041-060100-
COLUMBIA GORGE

  
CITY           SKY/WX    TMP DP  RH WIND       PRES   REMARKS
TROUTDALE      CLOUDY    50  39  66 E15       30.17S                  
6HR MIN TEMP:  48; 6HR MAX TEMP:  52;                                

THE DALLES     CLOUDY    46  40  79 N3        30.23F                  
6HR MIN TEMP:  41; 6HR MAX TEMP:  46;                                

$$

ORZ029>031-041-044-049-050-061>064-502-503-505>511-060100-
EASTERN OREGON

  
CITY           SKY/WX    TMP DP  RH WIND       PRES   REMARKS
REDMOND        PTSUNNY   50  29  44 SE10      30.22F                  
6HR MIN TEMP:  42; 6HR MAX TEMP:  52;                                

BEND           PTSUNNY   52  28  40 CALM      30.24F                  
PRINEVILLE     PTSUNNY   48  30  49 SE12G18   30.24F                  
KLAMATH FALLS  MOSUNNY   48  31  51 CALM      30.34F                  
6HR MIN TEMP:  29; 6HR MAX TEMP:  48;                                

LAKEVIEW       PTSUNNY   37  25  60 CALM      30.40S                  
HERMISTON      CLOUDY    51  39  63 W3        30.20F                  
6HR MIN TEMP:  44; 6HR MAX TEMP:  55;                                

PENDLETON      CLOUDY    56  32  40 SE14      30.19F                  
6HR MIN TEMP:  51; 6HR MAX TEMP:  59;                                

JOHN DAY       CLOUDY    49  25  39 S18G24    30.31F                  
MEACHAM        CLOUDY    37  30  75 CALM      30.27F                  
6HR MIN TEMP:  36; 6HR MAX TEMP:  39;                                

LA GRANDE      CLOUDY    41  28  60 S24G38    30.33F                  
6HR MIN TEMP:  39; 6HR MAX TEMP:  43;                                

BAKER CITY     CLOUDY    35  31  85 E21       30.39S WCI  24          
6HR MIN TEMP:  30; 6HR MAX TEMP:  39;                                

BURNS          CLOUDY    38  26  62 N3        30.37F                  
6HR MIN TEMP:  24; 6HR MAX TEMP:  41;                                

ROME             N/A     41  29  62 SE14      30.40F                  
6HR MIN TEMP:  37; 6HR MAX TEMP:  46;                                

ONTARIO        CLOUDY    33  30  88 NW5       30.51F FOG     WCI  29  
6HR MIN TEMP:  29; 6HR MAX TEMP:  33;                                

$$
  

Return to Home page


Western Regional Climate Center, wrcc@dri.edu